Location: Calvatone
(45.1167°N, 10.4333°E)
Time: 04:16:14
(UTC+00:00)

Envisat - Visible Passes

Search period start: 05 June 2023 00:00
Search period end: 15 June 2023 00:00
Orbit: 763 x 765 km, 98.2° (Epoch: 04 June)

Date Brightness Start Highest point End Pass type
(mag) Time Alt. Az. Time Alt. Az. Time Alt. Az.
05 Jun 3.8 02:54:22 10° NNE 02:59:22 54° E 03:04:19 10° S visible
06 Jun 5.0 02:17:50 10° NE 02:22:00 25° E 02:26:09 10° SSE visible
07 Jun 5.7 01:42:48 10° ENE 01:44:25 11° E 01:46:02 10° ESE visible
08 Jun 4.2 02:42:04 10° NNE 02:46:53 41° E 02:51:40 10° SSE visible
09 Jun 5.3 02:05:47 10° NE 02:09:27 20° E 02:13:05 10° SE visible
11 Jun 4.6 02:29:49 10° NNE 02:34:23 32° E 02:38:55 10° SSE visible
12 Jun 5.5 01:53:56 10° NE 01:56:52 15° E 01:59:47 10° SE visible
14 Jun 5.0 02:17:38 10° NE 02:21:51 25° E 02:26:01 10° SSE visible
